CZ-6A DEB

Satellite information

Favourite Embed

Satellite Type and Status

DEBRISIN ORBIT

Key statistics

Satellite CZ-6A DEB at a glance.

Uptime

910

Days in orbit

Revolutions

≈ 14.1

Per day

Orbit

SSO

Sun Synchronous Orbit

Inclination

98.8

Latest

Satellite identification and parameters

Extended collection of information and parameters for CZ-6A DEB.

Object identification

Identified? True

Debris? True

Object name: CZ-6A DEB

International designator: 2022-151AJ

Object number (NORAD): 54291

Object ID (CCSDS): 54291

Country: PEOPLES REPUBLIC OF CHINA (PRC)

Current information (Y/N): Y

RCS size: SMALL

Orbital parameters

Period: 102.449 minutes

Inclination: 98.8362 deg

SMA: 7252.664 km

Apoapsis: 933.245 km

Periapsis: 815.812 km

RAAN: 124.2712 deg

Eccentricy: 0.0080958

Argument of periapsis: 11.4477 deg

Mean anomaly: 348.8509 deg

Mean motion: 14.05582904 rev/day

Mean motion (dot): 0.00000175 rev/day2

B* drag term: 0.00013005 1/REarth

Two-line elements (TLE)

Creation date: May 9, 2025, 2:46 a.m.

Reference frame: TEME

Reference center: EARTH

Epoch: May 8, 2025, 12:51 p.m. UTC

TLE line 0: 0 CZ-6A DEB

TLE line 1: 1 54291U 22151AJ 25128.53598967 .00000175 00000-0 13005-3 0 9997

TLE line 2: 2 54291 98.8362 124.2712 0080958 11.4477 348.8509 14.05582904127041

Live tracking on map

Real-time ground track for satellite CZ-6A DEB.

In-orbit conjunctions

A list of the most updated potential collisions computed for object CZ-6A DEB.

Target Orbit TCA Probability of collision Miss distance Type
SL-16 R/B LEO 2025-02-01 21:43:56 0.0001820205 60.0 (m) ROCKET BODY
DELTA 1 DEB SSO 2024-11-11 19:30:50 0.000147396 233.0 (m) DEBRIS
COSMOS 1275 DEB LEO 2024-09-02 20:57:59 0.0001143215 121.0 (m) DEBRIS

Associated space launch

Chinese satellite reported for atmospheric/ocean/environmental/spatial parameter research purposes, details TBD.

CZ-6A DEB was lifted into orbit during the mission ‘Long March 6A | Yunhai 3’, on board a Long March 6A space rocket.

The launch took place on Nov. 11, 2022, 10:52 p.m. from Launch Complex 9A.

For more information about the launch, click the button.

Launch to space Long March 6A | Yunhai 3
Long March 6A | Yunhai 3

Agency: N/A

Status: Launch Successful

Launch date: Nov. 11, 2022, 10:52 p.m. UTC

Rocket: Long March 6A

Launch pad: Launch Complex 9A

Location: Taiyuan Satellite Launch Center, People's Republic of China

...

Latest news about this satellite

There are no fresh news available about this satellite. Check back as we update our databases every day.


Newsletter sign-up

Weekly statistics, charts and insights to help you stay on top of the space industry.